Regional Weather Roundup
Issued by NWS Cleveland, OH

Home | Current Version | Previous Version | Text Only | Print | Product List | Glossary Off
Versions: 1 2 3 4 5 6 7 8 9 10 11 12 13 14 15 16 17 18 19 20 21 22 23 24 25 26 27 28 29 30 31 32 33 34 35 36 37 38 39 40 41 42 43 44 45 46 47 48 49 50

000
ASUS41 KCLE 310902
RWRCLE
OHIO REGIONAL WEATHER ROUNDUP
NATIONAL WEATHER SERVICE CLEVELAND, OH
500 AM EDT TUE MAY 31 2016

NOTE: "FAIR" INDICATES FEW OR NO CLOUDS BELOW 12,000 FEET WITH NO
SIGNIFICANT WEATHER AND/OR OBSTRUCTIONS TO VISIBILITY.

OHZ001>008-015>018-024>027-034-035-043-044-311000-
   NORTHWEST OHIO

CITY           SKY/WX    TMP DP  RH WIND       PRES   REMARKS
DEFIANCE       CLEAR     60  54  80 CALM      30.00R
FINDLAY        MOCLDY    68  51  54 N3        29.98S
TOLEDO EXPRESS CLEAR     60  52  74 CALM      29.99S
TOLEDO EXEC    CLEAR     62  52  69 NW5       29.99S
LIMA           CLEAR     66  53  63 NE3       29.99S
$$

OHZ009>014-019>023-028>033-038-089-311000-
   NORTHEAST OHIO

CITY           SKY/WX    TMP DP  RH WIND       PRES   REMARKS
CLE-HOPKINS    PTCLDY    62  55  77 CALM      29.99S
CLE-LAKEFRONT  CLEAR     67  55  65 SE9       29.96R
CUY CO. ARPT   NOT AVBL
LORAIN-ELYRIA  CLEAR     59  56  89 CALM      29.99R
ASHTABULA      CLEAR     58  56  93 CALM      30.00R
AKRON-CANTON   CLEAR     62  53  72 CALM      30.00S
WOOSTER        CLEAR     55  53  93 CALM      30.00S
MANSFIELD      PTCLDY    59  57  93 S3        30.00R
YOUNGSTOWN     PTCLDY    58  53  84 CALM      30.00S
$$

OHZ042-051>053-060>062-070>072-077>081-311000-
  SOUTHWEST OHIO

CITY           SKY/WX    TMP DP  RH WIND       PRES   REMARKS
CINC-COVINGTON MOCLDY    64  59  83 CALM      29.98S
CINC-LUNKEN    CLEAR     61  61 100 CALM      29.98S
HAMILTON       CLEAR     61  59  93 CALM      29.98F
DAYTON         PTCLDY    64  55  72 CALM      29.99F
WRIGHT-PAT AFB CLEAR     62  62  97 CALM      29.98S
DAYTON GENERAL PTCLDY    65  55  70 CALM      29.97F
WILMINGTON     PTCLDY    65  58  78 S3        29.99S
$$

OHZ036-037-039>041-045>050-054>059-063>069-073>076-082>088-311000-
  CENTRAL AND SOUTHEAST OHIO

CITY           SKY/WX    TMP DP  RH WIND       PRES   REMARKS
COLUMBUS       CLEAR     62  59  90 CALM      29.98S
OSU AIRPORT    CLEAR     62  57  83 CALM      29.98S
BOLTON FIELD   NOT AVBL
RICKENBACK AFB NOT AVBL
NEWARK         PTCLDY    59  56  89 CALM      29.98F
MARION         PTCLDY    60  55  83 CALM      29.99S
LANCASTER      CLEAR     57  56  96 CALM      29.99S
ZANESVILLE     CLEAR     61  57  87 CALM      30.00R
NEW PHILLY     PTCLDY    61  57  87 CALM      30.00S
$$




USA.gov is the U.S. government's official web portal to all federal, state and local government web resources and services.